Sarasota, FL

1:22 PM EDT on September 26, 2017 (GMT -0400)
Sarasota-bradenton

Weather History for KSRQ - January, 2002

Change the Weather History Date:

Wednesday, January 30, 2002

  Actual Average Record
Temperature  
Mean Temperature 74 °F 62 °F  
Max Temperature 84 °F 72 °F 85 °F (1975)
Min Temperature 64 °F 52 °F 31 °F (1978)
Degree Days  
Heating Degree Days 0 5  
Month to date heating degree days 159  
Since 1 July heating degree days 314  
Cooling Degree Days 9 2  
Month to date cooling degree days 60  
Year to date cooling degree days 60  
Growing Degree Days 24 (Base 50)    
Moisture  
Dew Point 67 °F    
Average Humidity 85    
Maximum Humidity 100    
Minimum Humidity 55    
Precipitation  
Precipitation 0.01 in 0.05 in 1.27 in (1926)
Month to date precipitation 2.43  
Year to date precipitation 2.43  
Sea Level Pressure  
Sea Level Pressure 30.16 in    
Wind  
Wind Speed 7 mph (ESE)    
Max Wind Speed 15 mph    
Max Gust Speed -    
Visibility 8 miles    
Events Fog    
T = Trace of Precipitation, MM = Missing Value Source: NWS Daily Summary

Daily Weather History Graph

Daily Weather History Graph

Search for Another Location

Airport or City:

Trip Planner

Search our weather history database for the weather conditions in past years. The results will help you decide how hot, cold, wet, or windy it might be!

Date:

Astronomy

Jan. 30, 2002 Rise Set
Actual Time 7:17 AM EST 6:09 PM EST
Civil Twilight 6:52 AM EST 6:34 PM EST
Nautical Twilight 6:24 AM EST 7:02 PM EST
Astronomical Twilight 5:57 AM EST 7:30 PM EST
Moon 8:20 PM EST (1/30) 8:50 AM EST (1/30)
Length of Visible Light 11h 41m
Length of Day
10h 52m
Waning Gibbous, 95% of the Moon is Illuminated
Jan 30
Waning Gibbous
Feb 4
Last Quarter
Feb 12
New
Feb 20
First Quarter
Feb 27
Full

Hourly Weather History & Observations

Time (EST) Temp. Heat Index Dew Point Humidity Pressure Visibility Wind Dir Wind Speed Gust Speed Precip Events Conditions
12:53 AM 66.9 °F - 64.0 °F 90% 30.14 in 10.0 mi East 6.9 mph - N/A   Clear
1:53 AM 66.9 °F - 64.9 °F 93% 30.14 in 10.0 mi East 8.1 mph - N/A   Clear
2:53 AM 66.0 °F - 64.9 °F 96% 30.13 in 10.0 mi East 8.1 mph - N/A   Clear
3:53 AM 64.9 °F - 64.0 °F 97% 30.13 in 10.0 mi East 5.8 mph - N/A   Clear
4:53 AM 64.9 °F - 64.0 °F 97% 30.14 in 10.0 mi ENE 4.6 mph - N/A   Clear
5:40 AM 64.4 °F - 64.4 °F 100% 30.15 in 9.0 mi ENE 3.5 mph - N/A   Scattered Clouds
5:53 AM 64.9 °F - 64.9 °F 100% 30.15 in 8.0 mi ENE 4.6 mph - N/A   Mostly Cloudy
6:03 AM 64.4 °F - 64.4 °F 100% 30.15 in 1.8 mi East 5.8 mph - N/A   Overcast
6:13 AM 64.4 °F - 64.4 °F 100% 30.16 in 0.5 mi East 5.8 mph - N/A Fog Fog
6:53 AM 64.9 °F - 64.9 °F 100% 30.16 in 0.2 mi East 5.8 mph - 0.01 in Fog Fog
7:53 AM 66.0 °F - 66.0 °F 100% 30.17 in 0.2 mi East 6.9 mph - N/A Fog Fog
8:53 AM 66.9 °F - 66.9 °F 100% 30.19 in 0.5 mi ENE 6.9 mph - N/A Fog Fog
9:23 AM 69.8 °F - 69.8 °F 100% 30.19 in 2.0 mi East 9.2 mph - N/A   Overcast
9:53 AM 70.0 °F - 70.0 °F 100% 30.20 in 10.0 mi East 8.1 mph - N/A   Overcast
10:11 AM 71.6 °F - 69.8 °F 94% 30.20 in 10.0 mi ESE 9.2 mph - N/A   Overcast
10:53 AM 75.9 °F - 69.1 °F 79% 30.20 in 10.0 mi ESE 9.2 mph - N/A   Mostly Cloudy
11:06 AM 75.2 °F - 69.8 °F 83% 30.19 in 10.0 mi ESE 10.4 mph - N/A   Scattered Clouds
11:17 AM 78.8 °F - 69.8 °F 74% 30.19 in 10.0 mi ESE 12.7 mph - N/A   Mostly Cloudy
11:29 AM 78.8 °F - 69.8 °F 74% 30.18 in 10.0 mi SE 13.8 mph - N/A   Scattered Clouds
11:39 AM 77.0 °F - 68.0 °F 74% 30.18 in 10.0 mi ESE 12.7 mph - N/A   Mostly Cloudy
11:53 AM 80.1 °F 82.7 °F 68.0 °F 67% 30.17 in 10.0 mi ESE 11.5 mph - N/A   Scattered Clouds
12:12 PM 80.6 °F 83.2 °F 68.0 °F 65% 30.16 in 10.0 mi ESE 10.4 mph - N/A   Mostly Cloudy
12:26 PM 80.6 °F 82.7 °F 66.2 °F 61% 30.15 in 10.0 mi ESE 12.7 mph - N/A   Mostly Cloudy
12:53 PM 84.0 °F 86.3 °F 66.0 °F 55% 30.14 in 10.0 mi SE 15.0 mph - N/A   Mostly Cloudy
2:53 PM 80.1 °F 82.7 °F 68.0 °F 67% 30.10 in 10.0 mi SSW 11.5 mph - N/A   Partly Cloudy
3:53 PM 79.0 °F - 68.0 °F 69% 30.10 in 10.0 mi SW 8.1 mph - N/A   Clear
4:53 PM 78.1 °F - 68.0 °F 71% 30.11 in 10.0 mi WSW 8.1 mph - N/A   Scattered Clouds
5:53 PM 75.9 °F - 68.0 °F 76% 30.12 in 10.0 mi WNW 5.8 mph - N/A   Mostly Cloudy
6:53 PM 75.0 °F - 68.0 °F 79% 30.13 in 10.0 mi Calm Calm - 0.00 in   Mostly Cloudy
7:53 PM 73.9 °F - 69.1 °F 85% 30.14 in 10.0 mi West 3.5 mph - N/A   Mostly Cloudy
8:53 PM 73.0 °F - 68.0 °F 84% 30.16 in 10.0 mi Calm Calm - N/A   Clear
9:53 PM 70.0 °F - 66.9 °F 90% 30.17 in 10.0 mi Calm Calm - N/A   Scattered Clouds
10:53 PM 70.0 °F - 68.0 °F 93% 30.17 in 10.0 mi ENE 4.6 mph - N/A   Clear
11:53 PM 69.1 °F - 66.0 °F 90% 30.16 in 10.0 mi ESE 8.1 mph - N/A   Clear